Location: Poughquag
(41.6090°N, 73.6820°W)
Time: 02:31:03
(UTC-04:00)

Vanguard 1 Rocket - Pass Details

Date: 29 May 2020
Orbit: 653 x 4224 km, 34.3° (Epoch: 06 July)

Event Time Altitude Azimuth Distance (km) Brightness Sun altitude
Rises 23:08:17 0° 210° (SSW) 8,428 12.0 -22.1°
Reaches altitude 10° 23:15:35 10° 202° (SSW) 7,204 11.6 -22.7°
Enters shadow 23:27:47 27° 176° (S) 5,187 10.6 -23.6°
Exits shadow 23:32:07 31° 159° (SSE) 4,629 10.3 -23.9°
Maximum altitude 23:33:53 31° 151° (SSE) 4,458 10.3 -24.0°
Drops below altitude 10° 23:45:44 10° 95° (E) 4,717 10.8 -24.7°
Sets 23:49:12 0° 85° (E) 5,283 11.2 -24.9°
